Information on these data can be found in provided Readme document
Contact Info: Zachary Fasnacht (zachary.fasnacht@ssaihq.com); Nickolay Krotkov (nickolay.a.krotkov@nasa.gov); Lok Lamsal (lok.lamsal@nasa.gov)

FillValue: -999.
ScaleFactor: 1e15
Units: molecules/cm^2

Date(yyyy-mm-dd),City,Country,LonCenter,LatCenter,BoundingCoordinates,Median,Q1,Q3,Mean,Baseline_Median,Baseline_Q1,Baseline_Q3,Baseline_Mean,NumGoodSamples,NumTotalSamples
2015-01-01,Qingdao,China,120.3833,36.0667,[119.8833 35.5667 120.8833 36.5667],17.598,10.334,20.707,16.77,17.71,12.21,21.953,18.495,171.0,576.0
2015-01-02,Qingdao,China,120.3833,36.0667,[119.8833 35.5667 120.8833 36.5667],18.211,11.541,22.03,18.246,18.007,12.257,23.333,18.765,201.0,586.0
2015-01-03,Qingdao,China,120.3833,36.0667,[119.8833 35.5667 120.8833 36.5667],18.211,11.796,22.03,18.272,16.982,11.609,22.126,18.098,179.0,581.0
2015-01-04,Qingdao,China,120.3833,36.0667,[119.8833 35.5667 120.8833 36.5667],18.047,11.541,22.004,18.005,17.233,12.108,22.625,18.282,202.0,571.0
2015-01-05,Qingdao,China,120.3833,36.0667,[119.8833 35.5667 120.8833 36.5667],17.598,10.334,22.03,17.945,17.114,11.865,23.282,18.608,198.0,573.0
2015-01-06,Qingdao,China,120.3833,36.0667,[119.8833 35.5667 120.8833 36.5667],17.598,10.334,22.03,17.945,17.018,11.786,23.008,18.49,198.0,564.0
2015-01-07,Qingdao,China,120.3833,36.0667,[119.8833 35.5667 120.8833 36.5667],16.285,10.181,21.446,17.538,16.848,12.017,23.178,18.659,177.0,568.0
2015-01-08,Qingdao,China,120.3833,36.0667,[119.8833 35.5667 120.8833 36.5667],16.324,10.181,21.446,17.553,17.67,11.639,23.969,19.055,172.0,569.0
2015-01-09,Qingdao,China,120.3833,36.0667,[119.8833 35.5667 120.8833 36.5667],18.287,14.013,24.079,19.525,18.234,12.527,25.963,20.139,152.0,573.0
2015-01-10,Qingdao,China,120.3833,36.0667,[119.8833 35.5667 120.8833 36.5667],18.287,14.013,23.495,19.596,19.493,14.016,25.911,20.907,126.0,537.0
2015-01-11,Qingdao,China,120.3833,36.0667,[119.8833 35.5667 120.8833 36.5667],18.78,15.05,24.868,21.126,19.445,13.905,26.321,21.115,151.0,537.0
2015-01-12,Qingdao,China,120.3833,36.0667,[119.8833 35.5667 120.8833 36.5667],18.437,14.013,24.964,21.25,19.627,13.611,26.502,21.372,129.0,543.0
2015-01-13,Qingdao,China,120.3833,36.0667,[119.8833 35.5667 120.8833 36.5667],18.437,14.013,24.964,21.25,18.564,12.183,26.712,20.674,129.0,531.0
2015-01-14,Qingdao,China,120.3833,36.0667,[119.8833 35.5667 120.8833 36.5667],20.107,15.05,27.992,22.93,19.938,13.824,28.214,22.285,117.0,533.0
2015-01-15,Qingdao,China,120.3833,36.0667,[119.8833 35.5667 120.8833 36.5667],15.05,11.063,24.614,18.743,18.685,13.241,27.354,21.442,149.0,532.0
2015-01-16,Qingdao,China,120.3833,36.0667,[119.8833 35.5667 120.8833 36.5667],12.041,10.096,29.201,19.181,17.317,11.852,27.017,20.271,110.0,536.0
2015-01-17,Qingdao,China,120.3833,36.0667,[119.8833 35.5667 120.8833 36.5667],11.409,9.485,20.71,15.686,18.252,11.566,25.559,19.561,92.0,539.0
2015-01-18,Qingdao,China,120.3833,36.0667,[119.8833 35.5667 120.8833 36.5667],11.409,9.485,20.71,15.686,16.164,11.726,25.929,19.593,92.0,554.0
2015-01-19,Qingdao,China,120.3833,36.0667,[119.8833 35.5667 120.8833 36.5667],11.3,9.485,20.71,15.854,15.387,11.247,25.463,18.871,69.0,553.0
2015-01-20,Qingdao,China,120.3833,36.0667,[119.8833 35.5667 120.8833 36.5667],11.227,9.485,15.248,15.328,14.477,11.335,21.575,17.91,82.0,545.0
2015-01-21,Qingdao,China,120.3833,36.0667,[119.8833 35.5667 120.8833 36.5667],11.227,9.485,15.248,15.328,14.401,11.216,21.963,18.015,82.0,547.0
2015-01-22,Qingdao,China,120.3833,36.0667,[119.8833 35.5667 120.8833 36.5667],11.154,9.278,15.156,15.145,14.532,11.206,20.272,18.017,84.0,537.0
2015-01-23,Qingdao,China,120.3833,36.0667,[119.8833 35.5667 120.8833 36.5667],11.154,9.278,15.156,15.145,14.225,11.071,20.337,17.832,84.0,539.0
2015-01-24,Qingdao,China,120.3833,36.0667,[119.8833 35.5667 120.8833 36.5667],13.152,10.096,18.639,15.578,14.342,11.061,19.473,16.442,104.0,539.0
2015-01-25,Qingdao,China,120.3833,36.0667,[119.8833 35.5667 120.8833 36.5667],13.152,10.096,18.639,15.663,13.946,10.804,18.65,15.963,108.0,583.0
2015-01-26,Qingdao,China,120.3833,36.0667,[119.8833 35.5667 120.8833 36.5667],11.752,9.278,14.874,12.781,13.789,10.784,17.805,15.446,104.0,587.0
2015-01-27,Qingdao,China,120.3833,36.0667,[119.8833 35.5667 120.8833 36.5667],11.752,9.278,14.874,12.781,13.422,10.878,17.374,15.135,104.0,590.0
2015-01-28,Qingdao,China,120.3833,36.0667,[119.8833 35.5667 120.8833 36.5667],11.752,9.278,14.874,12.781,14.122,10.951,17.816,15.571,104.0,596.0
2015-01-29,Qingdao,China,120.3833,36.0667,[119.8833 35.5667 120.8833 36.5667],11.752,9.278,15.328,12.921,13.741,10.525,17.328,14.67,128.0,582.0
2015-01-30,Qingdao,China,120.3833,36.0667,[119.8833 35.5667 120.8833 36.5667],13.611,8.805,17.262,13.89,14.232,10.684,17.367,14.858,96.0,580.0
2015-01-31,Qingdao,China,120.3833,36.0667,[119.8833 35.5667 120.8833 36.5667],13.661,9.201,17.814,14.663,14.373,11.058,17.488,15.006,98.0,577.0
2015-02-01,Qingdao,China,120.3833,36.0667,[119.8833 35.5667 120.8833 36.5667],13.828,10.689,17.814,14.519,14.266,11.094,17.472,14.762,86.0,580.0
2015-02-02,Qingdao,China,120.3833,36.0667,[119.8833 35.5667 120.8833 36.5667],14.874,12.169,17.847,15.178,14.737,11.557,17.766,15.101,123.0,582.0
2015-02-03,Qingdao,China,120.3833,36.0667,[119.8833 35.5667 120.8833 36.5667],14.874,12.186,18.512,15.443,14.683,11.446,18.021,14.941,152.0,594.0
2015-02-04,Qingdao,China,120.3833,36.0667,[119.8833 35.5667 120.8833 36.5667],15.328,12.982,18.639,15.708,14.322,11.642,18.683,15.382,139.0,590.0
2015-02-05,Qingdao,China,120.3833,36.0667,[119.8833 35.5667 120.8833 36.5667],15.82,13.133,19.383,17.831,14.398,11.533,18.516,15.675,157.0,583.0
2015-02-06,Qingdao,China,120.3833,36.0667,[119.8833 35.5667 120.8833 36.5667],15.866,13.393,19.383,17.954,14.504,11.492,18.022,15.255,155.0,584.0
2015-02-07,Qingdao,China,120.3833,36.0667,[119.8833 35.5667 120.8833 36.5667],14.685,12.03,18.639,16.824,14.183,11.405,17.785,15.129,183.0,574.0
2015-02-08,Qingdao,China,120.3833,36.0667,[119.8833 35.5667 120.8833 36.5667],14.191,11.543,18.599,16.867,13.863,10.443,17.323,14.748,163.0,576.0
2015-02-09,Qingdao,China,120.3833,36.0667,[119.8833 35.5667 120.8833 36.5667],14.053,11.543,18.599,16.721,13.186,9.592,18.296,14.82,164.0,574.0
2015-02-10,Qingdao,China,120.3833,36.0667,[119.8833 35.5667 120.8833 36.5667],15.54,12.133,19.534,18.209,13.353,10.223,17.612,14.714,149.0,577.0
2015-02-11,Qingdao,China,120.3833,36.0667,[119.8833 35.5667 120.8833 36.5667],15.54,12.133,19.534,18.209,13.165,9.395,17.322,14.417,149.0,541.0
2015-02-12,Qingdao,China,120.3833,36.0667,[119.8833 35.5667 120.8833 36.5667],14.267,11.297,18.829,16.836,12.598,9.469,16.938,14.003,177.0,540.0
2015-02-13,Qingdao,China,120.3833,36.0667,[119.8833 35.5667 120.8833 36.5667],14.29,11.543,18.829,17.198,12.733,9.602,17.178,14.257,153.0,543.0
2015-02-14,Qingdao,China,120.3833,36.0667,[119.8833 35.5667 120.8833 36.5667],14.29,11.543,18.829,17.198,11.642,8.279,16.773,13.586,153.0,527.0
2015-02-15,Qingdao,China,120.3833,36.0667,[119.8833 35.5667 120.8833 36.5667],14.267,11.297,18.814,16.599,12.212,8.343,16.001,13.447,151.0,523.0
2015-02-16,Qingdao,China,120.3833,36.0667,[119.8833 35.5667 120.8833 36.5667],15.033,11.543,19.233,16.765,12.379,8.674,16.328,13.632,164.0,519.0
2015-02-17,Qingdao,China,120.3833,36.0667,[119.8833 35.5667 120.8833 36.5667],13.045,10.898,20.267,16.808,11.903,8.445,16.68,13.856,127.0,524.0
2015-02-18,Qingdao,China,120.3833,36.0667,[119.8833 35.5667 120.8833 36.5667],12.274,10.281,18.814,16.392,12.103,9.254,16.741,14.35,101.0,526.0
2015-02-19,Qingdao,China,120.3833,36.0667,[119.8833 35.5667 120.8833 36.5667],12.581,10.281,18.814,16.148,12.095,9.091,16.376,13.667,132.0,538.0
2015-02-20,Qingdao,China,120.3833,36.0667,[119.8833 35.5667 120.8833 36.5667],12.133,9.127,15.337,12.424,12.132,8.542,16.518,13.124,114.0,536.0
2015-02-21,Qingdao,China,120.3833,36.0667,[119.8833 35.5667 120.8833 36.5667],12.133,9.127,15.337,12.424,12.115,8.603,16.677,13.158,114.0,530.0
2015-02-22,Qingdao,China,120.3833,36.0667,[119.8833 35.5667 120.8833 36.5667],11.134,4.913,19.903,12.372,11.912,8.025,17.16,13.078,86.0,532.0
2015-02-23,Qingdao,China,120.3833,36.0667,[119.8833 35.5667 120.8833 36.5667],12.922,6.178,20.267,13.149,12.281,8.507,16.904,13.36,105.0,522.0
2015-02-24,Qingdao,China,120.3833,36.0667,[119.8833 35.5667 120.8833 36.5667],13.257,6.093,20.267,13.28,12.228,8.403,16.73,13.24,100.0,526.0
2015-02-25,Qingdao,China,120.3833,36.0667,[119.8833 35.5667 120.8833 36.5667],11.134,6.372,16.769,11.948,11.58,7.724,16.722,12.901,128.0,528.0
2015-02-26,Qingdao,China,120.3833,36.0667,[119.8833 35.5667 120.8833 36.5667],10.647,6.372,16.769,11.897,10.603,7.127,15.813,12.138,132.0,572.0
2015-02-27,Qingdao,China,120.3833,36.0667,[119.8833 35.5667 120.8833 36.5667],13.755,9.127,17.185,13.787,11.268,7.653,15.626,12.473,125.0,575.0
2015-02-28,Qingdao,China,120.3833,36.0667,[119.8833 35.5667 120.8833 36.5667],13.755,9.085,17.185,13.513,11.524,8.072,15.367,12.535,152.0,578.0
2015-03-01,Qingdao,China,120.3833,36.0667,[119.8833 35.5667 120.8833 36.5667],13.755,9.085,17.185,13.513,11.847,8.169,15.874,12.742,152.0,585.0
2015-03-02,Qingdao,China,120.3833,36.0667,[119.8833 35.5667 120.8833 36.5667],14.075,9.151,17.916,14.021,12.705,8.731,17.653,13.87,168.0,574.0
2015-03-03,Qingdao,China,120.3833,36.0667,[119.8833 35.5667 120.8833 36.5667],13.604,8.722,16.942,13.552,12.627,8.313,18.063,13.728,155.0,574.0
2015-03-04,Qingdao,China,120.3833,36.0667,[119.8833 35.5667 120.8833 36.5667],16.185,9.826,19.56,15.406,13.007,8.356,17.843,13.642,190.0,570.0
2015-03-05,Qingdao,China,120.3833,36.0667,[119.8833 35.5667 120.8833 36.5667],16.185,10.173,19.56,15.487,12.572,8.217,17.761,13.576,187.0,573.0
2015-03-06,Qingdao,China,120.3833,36.0667,[119.8833 35.5667 120.8833 36.5667],15.576,9.927,18.611,15.071,13.395,8.809,18.57,14.44,190.0,577.0
2015-03-07,Qingdao,China,120.3833,36.0667,[119.8833 35.5667 120.8833 36.5667],15.576,9.927,18.635,15.121,13.413,8.819,18.566,14.442,200.0,587.0
2015-03-08,Qingdao,China,120.3833,36.0667,[119.8833 35.5667 120.8833 36.5667],15.576,9.927,18.635,15.121,12.948,8.389,18.154,14.121,200.0,585.0
2015-03-09,Qingdao,China,120.3833,36.0667,[119.8833 35.5667 120.8833 36.5667],15.042,9.582,18.318,14.542,13.07,8.391,18.208,14.117,222.0,580.0
2015-03-10,Qingdao,China,120.3833,36.0667,[119.8833 35.5667 120.8833 36.5667],14.777,9.582,18.2,14.486,12.655,8.083,18.057,13.805,203.0,582.0
2015-03-11,Qingdao,China,120.3833,36.0667,[119.8833 35.5667 120.8833 36.5667],14.777,9.582,18.2,14.486,12.105,6.826,17.146,13.039,203.0,571.0
2015-03-12,Qingdao,China,120.3833,36.0667,[119.8833 35.5667 120.8833 36.5667],16.185,11.097,19.457,15.587,11.913,6.777,17.243,12.939,169.0,572.0
2015-03-13,Qingdao,China,120.3833,36.0667,[119.8833 35.5667 120.8833 36.5667],16.269,11.689,19.457,15.646,12.652,8.095,17.865,13.715,165.0,570.0
2015-03-14,Qingdao,China,120.3833,36.0667,[119.8833 35.5667 120.8833 36.5667],16.185,9.853,20.932,15.517,12.164,7.126,17.783,13.244,150.0,576.0
2015-03-15,Qingdao,China,120.3833,36.0667,[119.8833 35.5667 120.8833 36.5667],16.352,11.004,21.629,16.059,12.327,7.574,18.695,13.835,123.0,541.0
2015-03-16,Qingdao,China,120.3833,36.0667,[119.8833 35.5667 120.8833 36.5667],16.185,11.004,20.932,15.765,12.926,7.615,18.456,13.986,149.0,543.0
2015-03-17,Qingdao,China,120.3833,36.0667,[119.8833 35.5667 120.8833 36.5667],15.619,9.927,20.932,15.347,11.938,7.311,17.759,13.213,133.0,546.0
2015-03-18,Qingdao,China,120.3833,36.0667,[119.8833 35.5667 120.8833 36.5667],16.185,11.004,21.629,16.14,12.185,7.665,18.023,13.581,152.0,531.0
2015-03-19,Qingdao,China,120.3833,36.0667,[119.8833 35.5667 120.8833 36.5667],13.176,9.529,17.027,13.654,11.818,7.375,17.027,13.177,117.0,529.0
2015-03-20,Qingdao,China,120.3833,36.0667,[119.8833 35.5667 120.8833 36.5667],9.927,5.322,15.042,11.005,11.518,6.96,16.97,12.96,144.0,523.0
2015-03-21,Qingdao,China,120.3833,36.0667,[119.8833 35.5667 120.8833 36.5667],6.498,4.168,14.754,10.16,10.926,6.742,17.169,12.902,110.0,523.0
2015-03-22,Qingdao,China,120.3833,36.0667,[119.8833 35.5667 120.8833 36.5667],6.498,4.168,14.348,9.847,10.876,6.797,17.089,12.8,114.0,529.0
2015-03-23,Qingdao,China,120.3833,36.0667,[119.8833 35.5667 120.8833 36.5667],7.483,4.168,14.05,9.832,11.209,6.85,16.55,12.719,127.0,539.0
2015-03-24,Qingdao,China,120.3833,36.0667,[119.8833 35.5667 120.8833 36.5667],8.719,4.184,14.754,10.389,11.521,7.286,16.687,12.879,105.0,535.0
2015-03-25,Qingdao,China,120.3833,36.0667,[119.8833 35.5667 120.8833 36.5667],8.719,4.184,14.754,10.389,11.195,7.411,16.485,12.908,105.0,529.0
2015-03-26,Qingdao,China,120.3833,36.0667,[119.8833 35.5667 120.8833 36.5667],8.719,4.184,14.754,10.389,11.544,7.995,16.915,13.172,105.0,533.0
2015-03-27,Qingdao,China,120.3833,36.0667,[119.8833 35.5667 120.8833 36.5667],6.254,4.508,12.174,8.922,11.036,7.816,16.188,12.807,135.0,520.0
2015-03-28,Qingdao,China,120.3833,36.0667,[119.8833 35.5667 120.8833 36.5667],6.254,4.508,12.174,8.922,10.522,7.591,16.114,12.611,135.0,524.0
2015-03-29,Qingdao,China,120.3833,36.0667,[119.8833 35.5667 120.8833 36.5667],6.605,4.648,10.841,8.821,10.972,7.285,15.977,12.583,144.0,523.0
2015-03-30,Qingdao,China,120.3833,36.0667,[119.8833 35.5667 120.8833 36.5667],6.605,4.648,10.841,8.821,10.74,6.848,15.149,12.163,144.0,568.0
2015-03-31,Qingdao,China,120.3833,36.0667,[119.8833 35.5667 120.8833 36.5667],6.605,4.69,9.059,8.213,9.964,6.577,14.05,11.568,130.0,575.0
2015-04-01,Qingdao,China,120.3833,36.0667,[119.8833 35.5667 120.8833 36.5667],6.638,4.733,10.304,8.889,9.814,6.491,13.767,11.528,156.0,577.0
2015-04-02,Qingdao,China,120.3833,36.0667,[119.8833 35.5667 120.8833 36.5667],6.372,4.648,8.856,7.675,9.362,6.355,13.228,10.933,137.0,579.0
2015-04-03,Qingdao,China,120.3833,36.0667,[119.8833 35.5667 120.8833 36.5667],6.632,4.733,9.368,8.118,9.383,6.324,13.176,10.85,158.0,563.0
2015-04-04,Qingdao,China,120.3833,36.0667,[119.8833 35.5667 120.8833 36.5667],6.9,5.965,10.055,8.894,9.397,6.775,13.153,10.805,131.0,566.0
2015-04-05,Qingdao,China,120.3833,36.0667,[119.8833 35.5667 120.8833 36.5667],6.9,5.965,10.055,8.894,9.072,6.683,12.474,10.091,131.0,560.0
2015-04-06,Qingdao,China,120.3833,36.0667,[119.8833 35.5667 120.8833 36.5667],6.89,5.965,9.51,8.754,9.065,6.685,12.438,10.14,117.0,560.0
2015-04-07,Qingdao,China,120.3833,36.0667,[119.8833 35.5667 120.8833 36.5667],7.412,6.177,10.83,9.622,8.747,6.46,12.395,10.135,143.0,568.0
2015-04-08,Qingdao,China,120.3833,36.0667,[119.8833 35.5667 120.8833 36.5667],7.584,6.177,10.841,9.614,9.043,6.737,11.844,10.074,173.0,579.0
2015-04-09,Qingdao,China,120.3833,36.0667,[119.8833 35.5667 120.8833 36.5667],7.736,6.254,10.84,9.53,9.001,7.036,11.565,9.981,191.0,577.0
2015-04-10,Qingdao,China,120.3833,36.0667,[119.8833 35.5667 120.8833 36.5667],7.402,6.029,10.569,9.142,9.203,7.318,11.702,10.176,214.0,570.0
2015-04-11,Qingdao,China,120.3833,36.0667,[119.8833 35.5667 120.8833 36.5667],8.254,6.638,12.002,10.066,9.41,7.6,11.85,10.312,184.0,576.0
2015-04-12,Qingdao,China,120.3833,36.0667,[119.8833 35.5667 120.8833 36.5667],8.254,6.638,12.002,10.066,9.663,7.726,11.951,10.415,184.0,565.0
2015-04-13,Qingdao,China,120.3833,36.0667,[119.8833 35.5667 120.8833 36.5667],8.527,6.638,12.62,10.34,9.685,7.335,12.087,10.235,169.0,567.0
2015-04-14,Qingdao,China,120.3833,36.0667,[119.8833 35.5667 120.8833 36.5667],9.454,7.167,14.268,11.011,9.55,7.218,12.378,10.093,206.0,565.0
2015-04-15,Qingdao,China,120.3833,36.0667,[119.8833 35.5667 120.8833 36.5667],10.121,7.167,14.541,11.196,9.806,7.487,12.599,10.429,227.0,564.0
2015-04-16,Qingdao,China,120.3833,36.0667,[119.8833 35.5667 120.8833 36.5667],9.593,7.167,13.994,10.693,9.609,7.409,12.402,10.231,201.0,530.0
2015-04-17,Qingdao,China,120.3833,36.0667,[119.8833 35.5667 120.8833 36.5667],9.593,7.167,13.994,10.693,9.718,7.47,12.5,10.315,201.0,501.0
2015-04-18,Qingdao,China,120.3833,36.0667,[119.8833 35.5667 120.8833 36.5667],9.511,7.029,13.431,10.216,9.771,7.379,12.543,10.208,200.0,510.0
2015-04-19,Qingdao,China,120.3833,36.0667,[119.8833 35.5667 120.8833 36.5667],10.055,7.153,13.431,10.445,9.552,7.184,12.482,9.973,223.0,496.0
2015-04-20,Qingdao,China,120.3833,36.0667,[119.8833 35.5667 120.8833 36.5667],10.055,7.153,13.431,10.445,9.204,7.062,12.041,9.678,223.0,501.0
2015-04-21,Qingdao,China,120.3833,36.0667,[119.8833 35.5667 120.8833 36.5667],10.134,7.244,13.298,10.471,9.211,7.007,11.909,9.635,231.0,499.0
2015-04-22,Qingdao,China,120.3833,36.0667,[119.8833 35.5667 120.8833 36.5667],10.36,6.518,13.137,9.983,9.432,6.893,12.273,9.806,192.0,500.0
2015-04-23,Qingdao,China,120.3833,36.0667,[119.8833 35.5667 120.8833 36.5667],9.041,5.971,12.335,9.195,8.912,6.438,11.871,9.384,193.0,505.0
2015-04-24,Qingdao,China,120.3833,36.0667,[119.8833 35.5667 120.8833 36.5667],8.906,5.377,12.335,9.054,8.922,6.194,11.883,9.384,188.0,516.0
2015-04-25,Qingdao,China,120.3833,36.0667,[119.8833 35.5667 120.8833 36.5667],9.626,6.335,12.941,9.561,8.866,6.219,11.44,9.155,165.0,513.0
2015-04-26,Qingdao,China,120.3833,36.0667,[119.8833 35.5667 120.8833 36.5667],9.47,6.357,12.898,9.465,8.814,6.007,11.361,9.026,187.0,506.0
2015-04-27,Qingdao,China,120.3833,36.0667,[119.8833 35.5667 120.8833 36.5667],9.041,6.083,12.489,9.274,8.723,6.034,11.326,8.99,203.0,508.0
2015-04-28,Qingdao,China,120.3833,36.0667,[119.8833 35.5667 120.8833 36.5667],8.115,6.076,11.749,8.937,8.582,6.103,11.206,8.982,233.0,501.0
2015-04-29,Qingdao,China,120.3833,36.0667,[119.8833 35.5667 120.8833 36.5667],7.351,5.54,10.3,7.813,8.342,5.93,10.83,8.673,196.0,503.0
2015-04-30,Qingdao,China,120.3833,36.0667,[119.8833 35.5667 120.8833 36.5667],7.818,5.919,10.3,7.968,8.22,5.905,10.711,8.49,165.0,500.0
2015-05-01,Qingdao,China,120.3833,36.0667,[119.8833 35.5667 120.8833 36.5667],7.818,5.919,10.3,7.968,8.225,5.962,10.815,8.555,165.0,544.0
2015-05-02,Qingdao,China,120.3833,36.0667,[119.8833 35.5667 120.8833 36.5667],7.818,5.919,10.3,7.968,8.043,5.9,10.67,8.426,165.0,579.0
2015-05-03,Qingdao,China,120.3833,36.0667,[119.8833 35.5667 120.8833 36.5667],7.351,5.54,10.064,7.682,7.921,5.79,10.36,8.273,167.0,580.0
2015-05-04,Qingdao,China,120.3833,36.0667,[119.8833 35.5667 120.8833 36.5667],6.84,4.846,9.397,7.093,7.656,5.603,10.258,8.126,144.0,600.0
2015-05-05,Qingdao,China,120.3833,36.0667,[119.8833 35.5667 120.8833 36.5667],7.178,5.377,9.921,7.462,7.708,5.585,10.479,8.156,156.0,587.0
2015-05-06,Qingdao,China,120.3833,36.0667,[119.8833 35.5667 120.8833 36.5667],6.759,4.591,8.906,7.077,7.526,5.501,10.046,8.038,148.0,586.0
2015-05-07,Qingdao,China,120.3833,36.0667,[119.8833 35.5667 120.8833 36.5667],6.84,5.146,8.906,7.183,7.467,5.509,9.733,7.795,164.0,582.0
2015-05-08,Qingdao,China,120.3833,36.0667,[119.8833 35.5667 120.8833 36.5667],6.84,5.763,9.845,7.519,7.522,5.672,9.86,7.91,133.0,585.0
2015-05-09,Qingdao,China,120.3833,36.0667,[119.8833 35.5667 120.8833 36.5667],7.143,5.567,9.47,7.447,7.361,5.47,9.634,7.697,159.0,588.0
2015-05-10,Qingdao,China,120.3833,36.0667,[119.8833 35.5667 120.8833 36.5667],6.759,4.846,9.159,7.099,7.33,5.327,9.664,7.683,187.0,600.0
2015-05-11,Qingdao,China,120.3833,36.0667,[119.8833 35.5667 120.8833 36.5667],6.84,4.959,9.569,7.259,7.217,5.061,9.576,7.509,189.0,599.0
2015-05-12,Qingdao,China,120.3833,36.0667,[119.8833 35.5667 120.8833 36.5667],7.09,4.959,9.814,7.383,6.762,4.262,9.316,7.069,179.0,592.0
2015-05-13,Qingdao,China,120.3833,36.0667,[119.8833 35.5667 120.8833 36.5667],7.143,4.593,9.569,7.183,6.764,4.205,9.237,6.972,166.0,593.0
2015-05-14,Qingdao,China,120.3833,36.0667,[119.8833 35.5667 120.8833 36.5667],7.143,4.593,9.569,7.183,6.593,4.018,9.183,6.841,166.0,586.0
2015-05-15,Qingdao,China,120.3833,36.0667,[119.8833 35.5667 120.8833 36.5667],6.889,4.253,9.569,7.105,6.5,3.882,8.941,6.686,164.0,592.0
2015-05-16,Qingdao,China,120.3833,36.0667,[119.8833 35.5667 120.8833 36.5667],5.824,3.781,8.238,6.455,6.114,3.75,8.541,6.468,194.0,588.0
2015-05-17,Qingdao,China,120.3833,36.0667,[119.8833 35.5667 120.8833 36.5667],5.656,3.735,8.097,6.325,6.068,3.731,8.354,6.354,222.0,595.0
2015-05-18,Qingdao,China,120.3833,36.0667,[119.8833 35.5667 120.8833 36.5667],6.006,3.878,8.444,6.553,6.029,3.711,8.289,6.27,200.0,559.0
2015-05-19,Qingdao,China,120.3833,36.0667,[119.8833 35.5667 120.8833 36.5667],5.649,3.65,8.238,6.337,6.104,3.669,8.543,6.361,217.0,545.0
2015-05-20,Qingdao,China,120.3833,36.0667,[119.8833 35.5667 120.8833 36.5667],5.567,3.648,7.835,5.945,6.006,3.63,8.463,6.221,207.0,551.0
2015-05-21,Qingdao,China,120.3833,36.0667,[119.8833 35.5667 120.8833 36.5667],5.567,3.648,7.835,5.945,5.959,3.688,8.235,6.131,207.0,538.0
2015-05-22,Qingdao,China,120.3833,36.0667,[119.8833 35.5667 120.8833 36.5667],5.135,3.477,7.693,5.748,5.796,3.636,8.186,6.065,191.0,537.0
2015-05-23,Qingdao,China,120.3833,36.0667,[119.8833 35.5667 120.8833 36.5667],5.407,3.746,7.265,5.716,5.713,3.604,7.998,5.927,226.0,535.0
2015-05-24,Qingdao,China,120.3833,36.0667,[119.8833 35.5667 120.8833 36.5667],5.135,3.522,6.706,5.4,5.676,3.54,8.054,5.916,187.0,539.0
2015-05-25,Qingdao,China,120.3833,36.0667,[119.8833 35.5667 120.8833 36.5667],5.144,3.746,6.802,5.55,5.426,3.548,7.552,5.69,165.0,541.0
2015-05-26,Qingdao,China,120.3833,36.0667,[119.8833 35.5667 120.8833 36.5667],5.04,3.577,6.35,4.996,5.5,3.697,7.583,5.745,148.0,550.0
2015-05-27,Qingdao,China,120.3833,36.0667,[119.8833 35.5667 120.8833 36.5667],5.132,3.648,6.449,5.106,5.905,4.065,7.925,6.042,165.0,546.0
2015-05-28,Qingdao,China,120.3833,36.0667,[119.8833 35.5667 120.8833 36.5667],5.065,3.619,6.449,5.071,5.759,3.903,7.841,5.992,148.0,538.0
2015-05-29,Qingdao,China,120.3833,36.0667,[119.8833 35.5667 120.8833 36.5667],5.144,3.648,6.482,5.285,5.89,4.052,7.967,6.088,163.0,538.0
2015-05-30,Qingdao,China,120.3833,36.0667,[119.8833 35.5667 120.8833 36.5667],5.675,4.151,6.907,5.726,6.001,4.146,7.91,6.109,193.0,529.0
2015-05-31,Qingdao,China,120.3833,36.0667,[119.8833 35.5667 120.8833 36.5667],5.934,4.598,7.325,6.033,5.99,4.132,8.009,6.094,163.0,535.0
2015-06-01,Qingdao,China,120.3833,36.0667,[119.8833 35.5667 120.8833 36.5667],6.084,5.116,7.325,6.169,5.982,4.24,7.865,6.078,139.0,536.0
2015-06-02,Qingdao,China,120.3833,36.0667,[119.8833 35.5667 120.8833 36.5667],5.934,5.04,7.325,6.117,5.978,4.244,7.819,6.094,153.0,580.0
2015-06-03,Qingdao,China,120.3833,36.0667,[119.8833 35.5667 120.8833 36.5667],6.301,5.264,7.325,6.355,5.678,4.205,7.406,5.89,137.0,582.0
2015-06-04,Qingdao,China,120.3833,36.0667,[119.8833 35.5667 120.8833 36.5667],6.35,5.264,7.569,6.586,5.852,4.377,7.605,6.128,160.0,582.0
2015-06-05,Qingdao,China,120.3833,36.0667,[119.8833 35.5667 120.8833 36.5667],6.357,5.269,7.871,6.865,5.744,4.211,7.663,6.157,175.0,590.0
2015-06-06,Qingdao,China,120.3833,36.0667,[119.8833 35.5667 120.8833 36.5667],6.56,5.426,8.656,7.365,5.867,4.301,7.889,6.331,198.0,575.0
2015-06-07,Qingdao,China,120.3833,36.0667,[119.8833 35.5667 120.8833 36.5667],7.143,5.717,9.379,7.969,5.903,4.342,7.924,6.393,163.0,572.0
2015-06-08,Qingdao,China,120.3833,36.0667,[119.8833 35.5667 120.8833 36.5667],7.143,5.717,9.379,7.969,5.893,4.356,7.763,6.287,163.0,569.0
2015-06-09,Qingdao,China,120.3833,36.0667,[119.8833 35.5667 120.8833 36.5667],7.155,5.836,9.689,8.169,5.916,4.454,7.835,6.385,157.0,572.0
2015-06-10,Qingdao,China,120.3833,36.0667,[119.8833 35.5667 120.8833 36.5667],6.37,4.842,8.857,7.101,5.905,4.348,7.789,6.282,184.0,576.0
2015-06-11,Qingdao,China,120.3833,36.0667,[119.8833 35.5667 120.8833 36.5667],6.357,4.078,8.913,7.027,5.958,4.198,7.897,6.345,187.0,589.0
2015-06-12,Qingdao,China,120.3833,36.0667,[119.8833 35.5667 120.8833 36.5667],6.37,4.177,8.913,7.062,6.046,4.326,7.911,6.443,197.0,587.0
2015-06-13,Qingdao,China,120.3833,36.0667,[119.8833 35.5667 120.8833 36.5667],6.357,4.177,8.88,7.027,5.957,4.28,7.973,6.407,199.0,580.0
2015-06-14,Qingdao,China,120.3833,36.0667,[119.8833 35.5667 120.8833 36.5667],5.824,3.522,9.871,6.899,5.912,4.049,8.132,6.348,183.0,583.0
2015-06-15,Qingdao,China,120.3833,36.0667,[119.8833 35.5667 120.8833 36.5667],5.985,3.682,9.244,6.881,5.949,4.082,8.067,6.375,206.0,572.0